DELTA 1 DEB

Satellite information

Favourite Embed

Satellite Type and Status

DEBRISIN ORBIT

Key statistics

Satellite DELTA 1 DEB at a glance.

Uptime

17394

Days in orbit

Revolutions

≈ 14.3

Per day

Orbit

SSO

Sun Synchronous Orbit

Inclination

99.3

Latest

Satellite identification and parameters

Extended collection of information and parameters for DELTA 1 DEB.

Object identification

Identified? True

Debris? True

Object name: DELTA 1 DEB

International designator: 1978-026EK

Object number (NORAD): 12291

Object ID (CCSDS): 12291

Country: UNITED STATES OF AMERICA (US)

Current information (Y/N): Y

RCS size: MEDIUM

Orbital parameters

Period: 100.41 minutes

Inclination: 99.283 deg

SMA: 7156.122 km

Apoapsis: 808.377 km

Periapsis: 747.596 km

RAAN: 105.7276 deg

Eccentricy: 0.00424677

Argument of periapsis: 39.2297 deg

Mean anomaly: 74.7385 deg

Mean motion: 14.34122315 rev/day

Mean motion (dot): 0.0000446 rev/day2

B* drag term: 0.0015944096 1/REarth

Two-line elements (TLE)

Creation date: Oct. 18, 2025, 2:17 a.m.

Reference frame: TEME

Reference center: EARTH

Epoch: Oct. 18, 2025, 12:20 a.m. UTC

TLE line 0: 0 DELTA 1 DEB

TLE line 1: 1 12291U 78026EK 25291.01446054 .00004460 00000-0 15944-2 0 9990

TLE line 2: 2 12291 99.2830 105.7276 0042468 39.2297 74.7385 14.34122315298955

Live tracking on map

Real-time ground track for satellite DELTA 1 DEB.

In-orbit conjunctions

A list of the most updated potential collisions computed for object DELTA 1 DEB.

Target Orbit TCA Probability of collision Miss distance Type
SL-14 R/B LEO 2025-03-10 12:21:29 0.0001377489 248.0 (m) ROCKET BODY
SOICAL (CONE) LEO 2024-12-27 08:25:34 0.0001727944 914.0 (m) PAYLOAD
COSMOS 1023 LEO 2024-09-18 01:09:46 0.0002443173 129.0 (m) PAYLOAD

Associated space launch

Earth observation satellite

DELTA 1 DEB was lifted into orbit during the mission ‘Delta 2910 | Landsat 3’, on board a Delta 2910 space rocket.

The launch took place on March 5, 1978, 5:54 p.m. from Space Launch Complex 2W.

For more information about the launch, click the button.

Launch to space Delta 2910 | Landsat 3
Delta 2910 | Landsat 3

Agency: N/A

Status: Launch Successful

Launch date: March 5, 1978, 5:54 p.m. UTC

Rocket: Delta 2910

Launch pad: Space Launch Complex 2W

Location: Vandenberg SFB, CA, USA

...

Latest news about this satellite

There are no fresh news available about this satellite. Check back as we update our databases every day.


Newsletter sign-up

Weekly statistics, charts and insights to help you stay on top of the space industry.